Weather History for KBWD - February, 2013

Change the Weather History Date:

Thursday, February 7, 2013

  Actual Average (KABI) Record (KABI)
Temperature  
Mean Temperature 62 °F 47 °F  
Max Temperature 73 °F 59 °F 86 °F (1932)
Min Temperature 50 °F 35 °F -2 °F (1895)
Degree Days  
Heating Degree Days 4 18  
Month to date heating degree days 130  
Since 1 July heating degree days 1799  
Cooling Degree Days 0 0  
Month to date cooling degree days 0  
Year to date cooling degree days 1  
Growing Degree Days 12 (Base 50)    
Moisture  
Dew Point 48 °F    
Average Humidity 65    
Maximum Humidity 100    
Minimum Humidity 25    
Precipitation  
Precipitation 0.00 in 0.05 in 1.53 in (1931)
Month to date precipitation 0.30  
Year to date precipitation 1.32  
Sea Level Pressure  
Sea Level Pressure 29.97 in    
Wind  
Wind Speed 11 mph (WNW)    
Max Wind Speed 20 mph    
Max Gust Speed 28 mph    
Visibility 10 miles    
Events      
T = Trace of Precipitation, MM = Missing Value Source: NWS Daily Summary

Daily Weather History Graph

Daily Weather History Graph

Search for Another Location

Airport or City:

Trip Planner

Search our weather history database for the weather conditions in past years. The results will help you decide how hot, cold, wet, or windy it might be!

Date:

Astronomy

Feb. 07, 2013 Rise Set
Actual Time 7:24 AM CST 6:15 PM CST
Civil Twilight 6:59 AM CST 6:41 PM CST
Nautical Twilight 6:30 AM CST 7:10 PM CST
Astronomical Twilight 6:01 AM CST 7:38 PM CST
Moon 4:59 AM CST (2/7) 3:46 PM CST (2/7)
Length of Visible Light 11h 41m
Length of Day
10h 51m
Waning Crescent, 9% of the Moon is Illuminated
Feb 7
Waning Crescent
Feb 10
New
Feb 17
First Quarter
Feb 25
Full
Mar 4
Last Quarter

Hourly Weather History & Observations

Time (CST) Temp. Dew Point Humidity Pressure Visibility Wind Dir Wind Speed Gust Speed Precip Events Conditions
12:15 AM 59.0 °F 55.4 °F 88% 29.89 in 10.0 mi SSE 12.7 mph 16.1 mph N/A   Overcast
12:35 AM 59.0 °F 55.4 °F 88% 29.89 in 10.0 mi SSE 11.5 mph - N/A   Mostly Cloudy
12:55 AM 59.0 °F 55.4 °F 88% 29.89 in 10.0 mi SSE 10.4 mph - N/A   Partly Cloudy
1:15 AM 57.2 °F 55.4 °F 94% 29.89 in 10.0 mi SSE 8.1 mph - N/A   Clear
1:35 AM 57.2 °F 55.4 °F 94% 29.89 in 10.0 mi SSE 10.4 mph - N/A   Clear
1:55 AM 57.2 °F 55.4 °F 94% 29.89 in 10.0 mi SSE 9.2 mph - N/A   Clear
2:15 AM 57.2 °F 55.4 °F 94% 29.89 in 10.0 mi SSE 8.1 mph - N/A   Clear
2:35 AM 57.2 °F 55.4 °F 94% 29.89 in 10.0 mi South 5.8 mph - N/A   Scattered Clouds
2:55 AM 57.2 °F 55.4 °F 94% 29.89 in 10.0 mi South 4.6 mph - N/A   Overcast
3:15 AM 57.2 °F 55.4 °F 94% 29.89 in 10.0 mi SSE 5.8 mph - N/A   Overcast
3:35 AM 57.2 °F 55.4 °F 94% 29.90 in 10.0 mi South 10.4 mph - N/A   Overcast
3:55 AM 59.0 °F 55.4 °F 88% 29.91 in 10.0 mi SSW 9.2 mph - N/A   Overcast
4:15 AM 59.0 °F 55.4 °F 88% 29.90 in 10.0 mi SSW 10.4 mph - N/A   Overcast
4:35 AM 59.0 °F 55.4 °F 88% 29.91 in 10.0 mi SSW 8.1 mph - N/A   Overcast
4:55 AM 59.0 °F 55.4 °F 88% 29.91 in 10.0 mi SSW 6.9 mph - N/A   Overcast
5:15 AM 59.0 °F 55.4 °F 88% 29.90 in 10.0 mi SSW 6.9 mph - N/A   Overcast
5:35 AM 57.2 °F 55.4 °F 94% 29.90 in 10.0 mi South 5.8 mph - N/A   Overcast
5:55 AM 57.2 °F 55.4 °F 94% 29.90 in 10.0 mi South 6.9 mph - N/A   Overcast
6:15 AM 57.2 °F 55.4 °F 94% 29.90 in 10.0 mi North - - N/A   Mostly Cloudy
6:35 AM 57.2 °F 55.4 °F 94% 29.91 in 10.0 mi North - - N/A   Mostly Cloudy
6:55 AM 55.4 °F 53.6 °F 94% 29.90 in 10.0 mi SE 4.6 mph - N/A   Partly Cloudy
7:15 AM 55.4 °F 53.6 °F 94% 29.90 in 10.0 mi SE 3.5 mph - N/A   Clear
7:35 AM 53.6 °F 53.6 °F 100% 29.90 in 10.0 mi Calm Calm - N/A   Clear
7:55 AM 53.6 °F 53.6 °F 100% 29.91 in 10.0 mi SSE 3.5 mph - N/A   Clear
8:15 AM 55.4 °F 55.4 °F 100% 29.92 in 10.0 mi South 5.8 mph - N/A   Clear
8:35 AM 57.2 °F 55.4 °F 94% 29.92 in 10.0 mi South 6.9 mph - N/A   Clear
8:55 AM 59.0 °F 55.4 °F 88% 29.93 in 10.0 mi South 6.9 mph - N/A   Clear
9:15 AM 62.6 °F 55.4 °F 77% 29.93 in 10.0 mi SSW 9.2 mph - N/A   Clear
9:35 AM 64.4 °F 55.4 °F 73% 29.92 in 10.0 mi SW 13.8 mph - N/A   Clear
9:55 AM 66.2 °F 55.4 °F 68% 29.93 in 10.0 mi SW 10.4 mph - N/A   Clear
10:15 AM 68.0 °F 55.4 °F 64% 29.93 in 10.0 mi WSW 16.1 mph 20.7 mph N/A   Clear
10:35 AM 68.0 °F 53.6 °F 60% 29.93 in 10.0 mi West 13.8 mph 23.0 mph N/A   Clear
10:55 AM 69.8 °F 50.0 °F 49% 29.93 in 10.0 mi West 15.0 mph 27.6 mph N/A   Clear
11:15 AM 71.6 °F 48.2 °F 43% 29.94 in 10.0 mi West 17.3 mph 21.9 mph N/A   Clear
11:35 AM 71.6 °F 48.2 °F 43% 29.94 in 10.0 mi West 17.3 mph 20.7 mph N/A   Clear
11:55 AM 71.6 °F 48.2 °F 43% 29.94 in 10.0 mi West 13.8 mph 20.7 mph N/A   Clear
12:15 PM 73.4 °F 48.2 °F 41% 29.93 in 10.0 mi West 15.0 mph 20.7 mph N/A   Clear
12:35 PM 73.4 °F 42.8 °F 33% 29.93 in 10.0 mi WNW 18.4 mph - N/A   Clear
12:55 PM 73.4 °F 41.0 °F 31% 29.92 in 10.0 mi NW 17.3 mph 21.9 mph N/A   Clear
1:15 PM 73.4 °F 39.2 °F 29% 29.92 in 10.0 mi WNW 16.1 mph 19.6 mph N/A   Clear
1:35 PM 73.4 °F 37.4 °F 27% 29.92 in 10.0 mi NW 17.3 mph 24.2 mph N/A   Clear
1:55 PM 73.4 °F 35.6 °F 25% 29.92 in 10.0 mi NW 18.4 mph 21.9 mph N/A   Clear
2:15 PM 71.6 °F 35.6 °F 27% 29.92 in 10.0 mi NW 17.3 mph 25.3 mph N/A   Clear
2:35 PM 71.6 °F 35.6 °F 27% 29.93 in 10.0 mi NW 17.3 mph 24.2 mph N/A   Clear
2:55 PM 71.6 °F 35.6 °F 27% 29.93 in 10.0 mi NW 16.1 mph 21.9 mph N/A   Clear
3:15 PM 71.6 °F 37.4 °F 29% 29.94 in 10.0 mi NW 19.6 mph 23.0 mph N/A   Clear
3:35 PM 71.6 °F 37.4 °F 29% 29.94 in 10.0 mi NW 17.3 mph - N/A   Clear
3:55 PM 71.6 °F 39.2 °F 31% 29.94 in 10.0 mi NW 18.4 mph 24.2 mph N/A   Clear
4:15 PM 71.6 °F 39.2 °F 31% 29.95 in 10.0 mi NW 18.4 mph 25.3 mph N/A   Clear
4:35 PM 69.8 °F 39.2 °F 33% 29.96 in 10.0 mi NW 19.6 mph 24.2 mph N/A   Clear
4:55 PM 69.8 °F 41.0 °F 35% 29.96 in 10.0 mi NW 15.0 mph 19.6 mph N/A   Clear
5:15 PM 68.0 °F 41.0 °F 37% 29.97 in 10.0 mi North 17.3 mph 21.9 mph N/A   Clear
5:35 PM 68.0 °F 42.8 °F 40% 29.98 in 10.0 mi North 15.0 mph 20.7 mph N/A   Clear
5:55 PM 66.2 °F 44.6 °F 46% 30.00 in 10.0 mi North 15.0 mph 21.9 mph N/A   Clear
6:15 PM 62.6 °F 46.4 °F 55% 30.02 in 10.0 mi North 11.5 mph 24.2 mph N/A   Clear
6:35 PM 62.6 °F 46.4 °F 55% 30.03 in 10.0 mi NNW 13.8 mph 24.2 mph N/A   Clear
6:55 PM 60.8 °F 46.4 °F 59% 30.04 in 10.0 mi NNW 9.2 mph - N/A   Scattered Clouds
7:15 PM 59.0 °F 46.4 °F 63% 30.05 in 10.0 mi NNW 12.7 mph 19.6 mph N/A   Scattered Clouds
7:35 PM 59.0 °F 44.6 °F 59% 30.07 in 10.0 mi NNW 10.4 mph - N/A   Mostly Cloudy
7:55 PM 59.0 °F 42.8 °F 55% 30.08 in 10.0 mi North 9.2 mph - N/A   Mostly Cloudy
8:15 PM 57.2 °F 41.0 °F 55% 30.09 in 10.0 mi North 10.4 mph - N/A   Mostly Cloudy
8:35 PM 57.2 °F 41.0 °F 55% 30.10 in 10.0 mi North 8.1 mph - N/A   Overcast
8:55 PM 57.2 °F 41.0 °F 55% 30.11 in 10.0 mi North 13.8 mph - N/A   Mostly Cloudy
9:15 PM 55.4 °F 41.0 °F 58% 30.12 in 10.0 mi North 11.5 mph - N/A   Scattered Clouds
9:35 PM 55.4 °F 41.0 °F 58% 30.13 in 10.0 mi North 10.4 mph - N/A   Partly Cloudy
9:55 PM 55.4 °F 41.0 °F 58% 30.14 in 10.0 mi North 15.0 mph 20.7 mph N/A   Clear
10:15 PM 53.6 °F 41.0 °F 62% 30.15 in 10.0 mi NNW 12.7 mph - N/A   Clear
10:35 PM 53.6 °F 41.0 °F 62% 30.15 in 10.0 mi North 12.7 mph - N/A   Clear
10:55 PM 53.6 °F 41.0 °F 62% 30.16 in 10.0 mi North 11.5 mph - N/A   Clear
11:15 PM 51.8 °F 41.0 °F 67% 30.17 in 10.0 mi North 10.4 mph - N/A   Clear
11:35 PM 50.0 °F 41.0 °F 71% 30.17 in 10.0 mi North 6.9 mph - N/A   Clear
11:55 PM 50.0 °F 41.0 °F 71% 30.18 in 10.0 mi North 9.2 mph - N/A   Clear